Location: Partizánske
(48.6285°N, 18.3769°E)
Time: 18:04:42
(UTC+02:00)

Transit 2A - All Passes

Search period start: 07 July 2022 00:00
Search period end: 17 July 2022 00:00
Orbit: 600 x 957 km, 66.7° (Epoch: 06 July)

Date Brightness Start Highest point End Pass type
(mag) Time Alt. Az. Time Alt. Az. Time Alt. Az.
07 Jul - 00:29:43 10° NNW 00:30:15 10° NNW 00:30:47 10° N visible
07 Jul - 03:57:16 10° NNW 04:00:45 22° NE 04:04:08 10° E visible
07 Jul - 05:39:57 10° NW 05:44:19 68° WSW 05:48:38 10° SSE daylight
07 Jul - 20:22:46 10° S 20:27:49 41° ESE 20:32:26 10° NE daylight
07 Jul - 22:06:11 10° WSW 22:11:02 37° NW 22:15:29 10° NNE visible
07 Jul - 23:53:40 10° NW 23:55:30 12° NNW 23:57:16 10° N visible
08 Jul - 03:23:10 10° N 03:26:08 17° NNE 03:29:03 10° ENE visible
08 Jul - 05:05:35 10° NW 05:10:01 81° NE 05:14:21 10° SE daylight
08 Jul - 06:50:30 10° W 06:52:26 13° WSW 06:54:21 10° SW daylight
08 Jul - 19:48:59 10° S 19:53:35 29° ESE 19:57:51 10° NE daylight
08 Jul - 21:31:28 10° SW 21:36:35 50° NW 21:41:15 10° NNE visible
08 Jul - 23:18:09 10° WNW 23:20:47 14° NNW 23:23:20 10° N visible
09 Jul - 02:49:07 10° N 02:51:29 14° NNE 02:53:47 10° ENE visible
09 Jul - 04:31:16 10° NNW 04:35:38 56° NE 04:39:54 10° SE daylight
09 Jul - 06:15:13 10° WNW 06:18:19 19° WSW 06:21:25 10° SSW daylight
09 Jul - 19:15:29 10° SSE 19:19:25 21° ESE 19:23:04 10° ENE daylight
09 Jul - 20:56:54 10° SW 21:02:11 69° NW 21:06:59 10° NNE daylight
09 Jul - 22:42:50 10° WNW 22:46:08 17° NNW 22:49:17 10° N visible
10 Jul - 02:15:14 10° N 02:16:46 12° NNE 02:18:18 10° NE visible
10 Jul - 03:57:02 10° NNW 04:01:12 39° NE 04:05:17 10° ESE visible
10 Jul - 05:40:25 10° NW 05:44:10 28° WSW 05:47:54 10° S daylight
10 Jul - 18:42:29 10° SE 18:45:15 14° ESE 18:47:56 10° ENE daylight
10 Jul - 20:22:29 10° SSW 20:27:50 87° SE 20:32:40 10° NE daylight
10 Jul - 22:07:40 10° W 22:11:32 21° NW 22:15:10 10° NNE visible
11 Jul - 03:22:49 10° NNW 03:26:43 29° NE 03:30:32 10° ESE visible
11 Jul - 05:05:50 10° NW 05:09:57 42° WSW 05:14:04 10° S daylight
11 Jul - 19:48:15 10° SSW 19:53:31 62° ESE 19:58:18 10° NE daylight
11 Jul - 21:32:37 10° W 21:36:58 27° NW 21:41:01 10° NNE visible
12 Jul - 02:48:39 10° NNW 02:52:10 22° NE 02:55:37 10° E visible
12 Jul - 04:31:22 10° NW 04:35:42 64° WSW 04:40:00 10° SSE daylight
12 Jul - 19:14:12 10° S 19:19:14 43° ESE 19:23:50 10° NE daylight
12 Jul - 20:57:44 10° WSW 21:02:28 35° NW 21:06:49 10° NNE daylight
12 Jul - 22:45:26 10° NW 22:46:58 11° NNW 22:48:29 10° N visible
13 Jul - 02:14:33 10° N 02:17:35 18° NNE 02:20:33 10° ENE visible
13 Jul - 03:56:59 10° NW 04:01:23 86° NE 04:05:45 10° SE visible
13 Jul - 05:42:08 10° W 05:43:47 12° WSW 05:45:26 10° SW daylight
13 Jul - 18:40:23 10° S 18:45:00 31° ESE 18:49:16 10° NE daylight
13 Jul - 20:23:00 10° WSW 20:28:01 47° NW 20:32:36 10° NNE daylight
13 Jul - 22:09:50 10° WNW 22:12:15 14° NNW 22:14:36 10° N visible
14 Jul - 01:40:29 10° N 01:42:56 14° NNE 01:45:19 10° ENE visible
14 Jul - 03:22:40 10° NNW 03:27:01 59° NE 03:31:19 10° SE visible
14 Jul - 05:06:43 10° WNW 05:09:41 18° WSW 05:12:40 10° SSW daylight
14 Jul - 18:06:50 10° SSE 18:10:48 22° ESE 18:14:31 10° ENE daylight
14 Jul - 19:48:24 10° SW 19:53:36 65° NW 19:58:20 10° NNE daylight
14 Jul - 21:34:28 10° WNW 21:37:35 16° NNW 21:40:34 10° N visible
15 Jul - 01:06:35 10° N 01:08:14 12° NNE 01:09:51 10° NE visible
15 Jul - 02:48:25 10° NNW 02:52:36 41° NE 02:56:44 10° ESE visible
15 Jul - 04:31:52 10° NW 04:35:32 27° WSW 04:39:12 10° S daylight
15 Jul - 17:33:45 10° SE 17:36:39 15° ESE 17:39:26 10° ENE daylight
15 Jul - 19:13:58 10° SW 19:19:15 89° NW 19:24:02 10° NE daylight
15 Jul - 20:59:16 10° W 21:02:58 20° NW 21:06:29 10° NNE daylight
16 Jul - 02:14:13 10° NNW 02:18:08 30° NE 02:21:59 10° ESE visible
16 Jul - 03:57:15 10° NW 04:01:20 40° WSW 04:05:24 10° S visible
16 Jul - 18:39:42 10° SSW 18:44:55 65° ESE 18:49:40 10° NE daylight
16 Jul - 20:24:12 10° W 20:28:25 26° NW 20:32:20 10° NNE daylight
